Weather History for Salisbury, MD

Change the Weather History Date:

Tuesday, September 3, 2013

  Actual Average Record
Temperature  
Mean Temperature 79 °F 72 °F  
Max Temperature 89 °F 82 °F 99 °F (1930)
Min Temperature 69 °F 63 °F 46 °F (1967)
Degree Days  
Heating Degree Days 0 0  
Month to date heating degree days 0 0  
Since 1 July heating degree days 0 2  
Cooling Degree Days 14 7  
Month to date cooling degree days 49 23  
Year to date cooling degree days 1412 1006  
Growing Degree Days 29 (Base 50)    
Moisture  
Dew Point 69 °F    
Average Humidity 69    
Maximum Humidity 94    
Minimum Humidity 44    
Precipitation  
Precipitation 0.00 in 0.12 in 1.13 in (2012)
Month to date precipitation 0.00 0.38  
Year to date precipitation 39.68 31.45  
Snow  
Snow 0.00 in 0.00 in 0.00 in (2002)
Month to date snowfall 0.0 0.0  
Since 1 July snowfall 0.0 0.0  
Snow Depth 0.00 in    
Sea Level Pressure  
Sea Level Pressure 29.82 in    
Wind  
Wind Speed 5 mph (WNW)    
Max Wind Speed 14 mph    
Max Gust Speed 17 mph    
Visibility 9 miles    
Events      
T = Trace of Precipitation, MM = Missing Value Source: NWS Daily Summary

Daily Weather History Graph

Daily Weather History Graph

Search for Another Location

Airport:

Trip Planner

Search our weather history database for the weather conditions in past years. The results will help you decide how hot, cold, wet, or windy it might be!

Date:

Astronomy

Sep. 03, 2013 Rise Set
Actual Time 6:33 AM EDT 7:28 PM EDT
Civil Twilight 6:06 AM EDT 7:55 PM EDT
Nautical Twilight 5:34 AM EDT 8:27 PM EDT
Astronomical Twilight 5:01 AM EDT 9:00 PM EDT
Moon 4:45 AM EDT (9/3) 6:14 PM EDT (9/3)
Length of Visible Light 13h 48m
Length of Day
12h 55m
Waning Crescent, 3% of the Moon is Illuminated
Sep 3
Waning Crescent
Sep 5
New
Sep 12
First Quarter
Sep 19
Full
Sep 26
Last Quarter

Hourly Weather History & Observations

Time (EDT) Temp. Heat Index Dew Point Humidity Pressure Visibility Wind Dir Wind Speed Gust Speed Precip Events Conditions
12:54 AM 77.0 °F - 73.0 °F 88% 29.78 in 7.0 mi SSW 6.9 mph - N/A   Clear
1:54 AM 77.0 °F - 73.0 °F 88% 29.76 in 8.0 mi SSW 8.1 mph - N/A   Clear
2:54 AM 77.0 °F - 73.9 °F 90% 29.75 in 7.0 mi SW 8.1 mph - N/A   Clear
3:54 AM 77.0 °F - 73.9 °F 90% 29.75 in 7.0 mi SSW 6.9 mph - N/A   Clear
4:54 AM 75.9 °F - 73.0 °F 91% 29.76 in 6.0 mi SSW 4.6 mph - N/A   Clear
5:54 AM 75.9 °F - 73.0 °F 91% 29.77 in 5.0 mi Calm Calm - N/A   Clear
6:54 AM 75.9 °F - 73.0 °F 91% 29.78 in 3.0 mi Calm Calm - N/A   Clear
7:54 AM 78.1 °F - 75.0 °F 90% 29.80 in 5.0 mi SW 3.5 mph - N/A   Clear
8:54 AM 82.0 °F 88.6 °F 75.0 °F 79% 29.80 in 9.0 mi West 4.6 mph - N/A   Clear
9:54 AM 84.0 °F 91.9 °F 75.0 °F 74% 29.81 in 10.0 mi NNW 9.2 mph - N/A   Clear
10:32 AM 84.2 °F 90.9 °F 73.4 °F 70% 29.81 in 10.0 mi NNW 11.5 mph - N/A   Mostly Cloudy
10:40 AM 84.2 °F 90.9 °F 73.4 °F 70% 29.81 in 9.0 mi NW 6.9 mph - N/A   Scattered Clouds
10:54 AM 84.9 °F 91.4 °F 73.0 °F 67% 29.82 in 10.0 mi NNW 9.2 mph - N/A   Partly Cloudy
11:54 AM 87.1 °F 94.5 °F 73.0 °F 63% 29.83 in 10.0 mi North 5.8 mph - N/A   Partly Cloudy
12:54 PM 88.0 °F 92.1 °F 69.1 °F 53% 29.83 in 10.0 mi West 5.8 mph - N/A   Partly Cloudy
1:54 PM 88.0 °F 89.6 °F 64.9 °F 46% 29.82 in 10.0 mi NNW 11.5 mph - N/A   Mostly Cloudy
2:54 PM 86.0 °F 87.6 °F 64.9 °F 49% 29.81 in 10.0 mi NW 11.5 mph - N/A   Clear
3:54 PM 86.0 °F 88.8 °F 66.9 °F 53% 29.82 in 10.0 mi WNW 4.6 mph - N/A   Clear
4:54 PM 84.9 °F 85.0 °F 61.0 °F 44% 29.82 in 10.0 mi WNW 6.9 mph - N/A   Clear
5:54 PM 82.9 °F 83.7 °F 62.1 °F 49% 29.84 in 10.0 mi WNW 6.9 mph - N/A   Clear
6:54 PM 82.0 °F 82.7 °F 61.0 °F 49% 29.84 in 10.0 mi West 5.8 mph - N/A   Clear
7:54 PM 79.0 °F - 62.1 °F 56% 29.86 in 10.0 mi Calm Calm - N/A   Clear
8:54 PM 73.0 °F - 64.9 °F 76% 29.89 in 10.0 mi Calm Calm - N/A   Clear
9:54 PM 70.0 °F - 64.0 °F 81% 29.91 in 10.0 mi Calm Calm - N/A   Clear
10:54 PM 70.0 °F - 64.9 °F 84% 29.92 in 10.0 mi Calm Calm - N/A   Clear
11:54 PM 72.0 °F - 61.0 °F 68% 29.94 in 10.0 mi North 10.4 mph - N/A   Clear